Showing default

FLOCK 4G 24, 62637

Orbit data source: Space-Track

FLOCK 4G 24, 62637 is a payload satellite owned by Planet (US) in SSO that was launched on Tue, 14 Jan 2025 UTC via an FALCON 9 launch vehicle from the Air Force Western Test Range (AFWTR). Payload-class satellites include a variety of spacecraft equipped with specific instruments for various scientific and technological missions. These include communications satellites like Starlink; space stations such as the ISS; scientific satellites like the Hubble; Earth observation satellites from companies like Planet Labs, Umbra, and HawkEye 360; GPS; miniature CubeSats for education and research; and military/defense satellites.

Loading next visibility...
Identifier
62637, 2025-009AE
Orbit
SSO
Country
Flag of USUS
Related business
Manufacturer
Planet
Mission
Operational Commercial Imaging
Bus & Motor
CUBESAT 3U, Unknown motor
Mass
5.7 kg wet, 5.7 kg dry
Launch date (UTC)
2025-01-14 (1 year ago)
Launch vehicle
FALCON 9
Launch site
Air Force Western Test Range (AFWTR)
Object type
Payload
Rocket body
Debris
Shape & HBR
Box + 2 Pan, 1.0 m
Radar Cross Section
0.072 m², Medium (>0.1 m² and < 1m²)

Expand to show TLE details & history
Last TLE update: 11 hours ago

TLE from 11 hours ago
0 FLOCK 4G 24
1 62637U 25009AE  26034.19845734  .00013236  00000-0  50364-3 0  9992
2 62637  97.4128 117.2182 0004133  57.9668 302.1971 15.26873778 58461
Epoch: 2026-02-03T04:45Z
TLE epoch observation values (Epoch: 2026-02-03T04:45:46.714Z)
Latitude
-0.00009°
Longitude
-87.60926°
Altitude
486.753 km
Speed
7.623 km/s
True Right ascension
07h 48m 52s
True Declination
0° 00' 00"
Sunlit
Object was in full shadow at epoch
Visualization orbit readout
Latitude
Unknown
Longitude
Unknown
Altitude
Unknown
Speed
Unknown
Apparent Right ascension
Unknown
Apparent Declination
Unknown
Sunlit
N/A
Visualization observer readout
Local Sidereal Time
18:02:49
Azimuth
Unknown
Elevation
Unknown
Doppler factor
Unknown
Orbital elements
Apogee altitude
484.957 km
Perigee altitude
479.286 km
Semi-major axis
6,860.259 km
Eccentricity
0.00041
Inclination
97.4128°
RAAN
117.2182°
Arg. of periapsis
57.9668°
True anomaly
302.15701°
Mean anomaly
302.1971°
Eccentric anomaly
302.17706°
Mean motion
3.81973 °/min
Orbital period
94.25 mins
BSTAR
0.00050364
Loading maneuver chart data...
Computing Atmospheric mass density...
Loading historical data...
Loading historical data...
Loading historical data...
Loading historical data...
Loading historical data...
Loading historical data...
Loading historical data...

Documentation

Showing up to 5 results
|